www.pogodaiklimat.ru

Погода и климат >> Архив погоды >> Россия >> Дагестан >> Изберг


ПОГОДА в Изберге

  • Прогноз погоды в Изберге
  • Монитор погоды в Изберге
  • Климат города

АРХИВ ПОГОДЫ в Изберге

Время (UTC), дата Ветер
(напр.,м/с)
 
Видим.   Явления Облачность Т
(С)
Тd
(С)
f
(%)
Тe
(С)
Тes
(С)
Комфортность P
(гПа)
Po
(гПа)
Тmin
(С)
Tmax
(С)
R
(мм)
R24
(мм)
S
(см)
18 16.10 СЗ 10-15
{19}
20 км 8/3 600 м
[Cu hum Ac und]
+11.8 +2.5 53 +8 +8 1014.5 1016.7
21 16.10 СЗ 7-12
{20}
20 км 8/1 600 м
[Cu hum Ac und]
+10.2 +1.8 56 +7 +7 1015.5 1017.7
00 17.10 СЗ 9-13
{13}
20 км 9/0
[Ac und]
+10.3 +4.9 69 +6 +6 1015.6 1017.8
03 17.10 СЗ 11-19
{20}
20 км 6/4 600 м
[Cu hum Ac trans]
+10.4 +0.2 49 +6 +6 1017.1 1019.3 +9.4
06 17.10 СЗ 8-14
{19}
50 км 4/3 600 м
[Cu med, cong Ac trans]
+13.9 -1.7 34 +12 +12 1017.8 1020.0
09 17.10 СЗ 11-17
{21}
50 км 6/3 600 м
[Cu med, cong Cc]
+16.1 +0.1 34 +14 +14 1017.2 1019.4
12 17.10 СЗ 9-13
{20}
50 км 4/1 600 м
[Cu med, cong Ac lent Ci fib]
+16.6 +5.0 46 +15 +15 1016.4 1018.5
15 17.10 СЗ 7-12
{15}
20 км 10/9 600 м
[Cu hum Ac trans]
+15.1 +3.3 45 +13 +13 1018.6 1020.8 +17.1
18 17.10 ЮЗ 2
{13}
20 км в посл. час ливневой дождь 10/10 600 м
[Cb calv]
+12.3 +6.8 69 +11 +11 1019.8 1022.0
21 17.10 ЮЗ 3 20 км 10/10 600 м
[Cb calv]
+12.2 +7.1 71 +11 +11 1018.8 1021.0
00 18.10 З 2 20 км 10/10 600 м
[Cb calv]
+12.6 +6.3 65 +12 +12 1018.9 1021.0
03 18.10 З 2 20 км 10/10 600 м
[Cb calv]
+14.6 +7.2 61 +14 +14 1021.3 1023.5 +11.8 0.0
06 18.10 СЗ 8-13
{13}
20 км 10/10 600 м
[Cb calv]
+15.6 +9.2 66 +14 +14 1023.8 1025.9
09 18.10 СЗ 4
{13}
20 км 10/6 600 м
[Cb calv Ac lent]
+16.0 +9.1 64 +15 +16 1024.5 1026.7
12 18.10 С 1 50 км 10/4 600 м
[Cb calv Ac lent]
+15.8 +9.0 64 +17 +17 1024.6 1026.7
15 18.10 ЮЗ 1 20 км 10/10 600 м
[Cb calv]
+14.7 +9.7 72 +15 +15 1025.1 1027.3 +16.3
18 18.10 ЮЗ 3 20 км 10/0
[Ac und]
+11.5 +8.4 81 +10 +10 1025.4 1027.6
21 18.10 ЮЗ 2 20 км 10/10 600 м
[Cu hum]
+13.0 +9.4 79 +12 +12 1024.8 1027.0
00 19.10 ЮЗ 3 20 км 10/0
[Ac und Ci fib]
+10.2 +7.5 83 +8 +8 1023.5 1025.8
03 19.10 ЮЗ 3 50 км 10/0
[Ac trans Cs]
+8.1 +6.1 87 +5 +5 1023.4 1025.6 +8.1
06 19.10 В 1 20 км 10/0
[Cs]
+15.6 +9.8 68 +16 +20 1023.9 1026.0 +8.1
09 19.10 СВ 2 20 км 9/1 600 м
[Cu hum Cs]
+17.0 +11.2 69 +17 +23 1022.2 1024.4
12 19.10 СВ 2 20 км 1/1 600 м
[Cu hum]
+17.0 +12.6 75 +17 +20 1020.8 1022.9
15 19.10 З 2 20 км 1/1 600 м
[Cu hum]
+14.8 +12.0 83 +14 +14 1020.4 1022.6 +17.4
18 19.10 З 2 20 км ясно +12.6 +10.9 89 +12 +12 1020.2 1022.4
21 19.10 ЮЗ 3 20 км ясно +10.4 +7.9 84 +8 +8 1019.3 1021.5
00 20.10 ЮЗ 3 20 км ясно +9.7 +7.0 83 +7 +7 1018.8 1021.0
03 20.10 ЮЗ 3 20 км 1/1 600 м
[Cu hum]
+9.0 +6.3 83 +7 +7 1019.2 1021.4 +9.0
06 20.10 СВ 1 20 км 8/0
[Cs]
+16.1 +9.6 65 +17 +20 1019.9 1022.0 +9.0
09 20.10 СВ 2 20 км 10/0
[Cs]
+16.9 +11.4 70 +17 +23 1018.9 1021.1
12 20.10 В 2 20 км 10/0
[Cs]
+16.9 +11.0 68 +17 +19 1018.5 1020.6
15 20.10 Ю 2 20 км 8/0
[Cs]
+14.7 +10.7 77 +14 +14 1018.7 1020.9 +17.2
18 20.10 ЮЗ 4 20 км 8/0
[Ac trans Ci fib]
+12.0 +7.9 76 +10 +10 1018.8 1021.0
21 20.10 ЮЗ 3 20 км 3/0
[Ci fib]
+11.4 +7.4 76 +10 +10 1018.2 1020.4
00 21.10 ЮЗ 4 20 км ясно +11.7 +6.9 72 +10 +10 1017.5 1019.7
03 21.10 ЮЗ 4 20 км 3/0
[Ac lent]
+12.5 +6.3 66 +11 +11 1017.4 1019.6 +10.8
06 21.10 С 1 20 км 6/0
[Cs]
+17.3 +10.8 66 +18 +22 1017.5 1019.6 +10.6
09 21.10 В 4 20 км 10/0
[Ac trans Cs]
+18.1 +12.0 68 +18 +21 1015.9 1018.1
12 21.10 ЮВ 3 20 км 10/0
[Ac trans Cs]
+17.5 +13.5 77 +18 +19 1014.6 1016.8
15 21.10 Ю 2 20 км 10/0
[Ac trans Cs]
+15.7 +13.1 85 +16 +16 1014.3 1016.4 +18.4
18 21.10 З 2 20 км 9/0
[Ac und Ci]
+11.1 +8.8 86 +10 +10 1014.1 1016.3
21 21.10 З 2 20 км 10/3 600 м
[Cu hum Cs]
+11.0 +8.5 85 +10 +10 1013.7 1015.9
00 22.10 ЮЗ 2 20 км 10/10 600 м
[Cu hum]
+12.6 +9.2 80 +12 +12 1012.8 1015.0
03 22.10 ЮЗ 1 20 км 10/10 600 м
[Cu hum]
+13.1 +9.3 78 +13 +13 1012.3 1014.5 +10.7
06 22.10 СЗ 3 20 км 9/9 600 м
[Cu hum]
+15.5 +10.5 72 +15 +15 1012.0 1014.1
09 22.10 С 5 20 км 6/1 600 м
[Cu hum Cs]
+17.0 +13.3 79 +16 +19 1010.2 1012.3
12 22.10 СЗ 5 20 км 10/4 600 м
[Cu hum Ac As]
+16.4 +13.2 81 +15 +16 1009.9 1012.1
15 22.10 З 2 20 км 9/1 600 м
[Cu hum Ac trans Ci fib]
+14.0 +11.7 86 +13 +13 1010.4 1012.5 +17.6
18 22.10 ЮЗ 3 20 км ясно +11.5 +9.3 86 +10 +10 1009.7 1011.8
21 22.10 ЮЗ 4 20 км 10/0
[Cs]
+11.7 +8.9 83 +10 +10 1009.4 1011.5
00 23.10 СЗ 5 20 км 8/0
[Cs]
+13.1 +9.6 79 +11 +11 1011.3 1013.4
03 23.10 СЗ 6-10
{13}
20 км 10/8 600 м
[Cu hum Ac trans]
+14.3 +9.3 72 +12 +12 1014.1 1016.3 +11.3
06 23.10 СЗ 8-12
{13}
20 км 10/9 600 м
[Cb calv Ac trans]
+14.7 +9.9 73 +13 +13 1017.3 1019.5
09 23.10 СЗ 7-11
{17}
20 км 10/4 600 м
[Cb calv Ac und]
+11.3 +7.7 78 +8 +8 1020.0 1022.2
12 23.10 СЗ 5
{12}
20 км 10/10 600 м
[Cb calv]
+10.4 +6.0 74 +8 +8 1022.1 1024.4
15 23.10 З 2 20 км 10/3 600 м
[Cu hum Ac und]
+9.9 +5.6 75 +8 +8 1023.6 1025.8 +15.5

 

Местоположение метеостанции Изберг (Дагестан, Россия): широта 42.53 долгота 47.92 высота над уровнем моря -16 м.

В архиве по умолчанию представлена погода в Изберге за последнюю неделю. Архивные данные за месяц целиком и за предыдущие месяцы, начиная с января 2011 года, Вы можете получить, выбрав интересующий диапазон дат из раскрывающегося списка и нажав кнопку "Ввод!".

Внимание! Время в таблицах - всемирное. Для получения местного времени необходимо прибавить поправку, которая в Изберге равна 3 ч.

Смотрите также архив погоды в соседних городах и на ближайших метеорологических станциях:

Погода в Сергокале (Дагестан, Россия) (22 км)
Погода в Дербенте (Дагестан, Россия) (60 км)
Погода в Махачкале (Дагестан, Россия) (65 км)
Погода в Куппе (Дагестан, Россия) (68 км)
Погода в Буйнакске (Дагестан, Россия) (73 км)
Погода в Гунибе (Дагестан, Россия) (79 км)
Погода в Кумухе (Дагестан, Россия) (80 км)
Погода в Касумкенте (Дагестан, Россия) (98 км)
Погода в Хунзахе (Дагестан, Россия) (100 км)
Погода в Ахты (Дагестан, Россия) (119 км)

Пояснения к столбцам:

Ветер - указаны скорость ветра в м/с - средняя за 10 мин, порывы в срок и между сроками (в фигурных скобках) и направление, откуда дует ветер: С - северный, СВ - северо-восточный, В - восточный, ЮВ - юго-восточный, Ю - южный, ЮЗ - юго-западный, З - западный, СЗ - северо-западный.
Видимость - горизонтальная дальность видимости в метрах или километрах. При видимости от 1 до 10 км при отсутствии осадков обычно наблюдается дымка, при ухудшении видимости до 1 км и менее - туман. В сухую погоду видимость может ухудшаться дымом, пылью или мглою.
Явления - указаны атмосферные явления, наблюдавшиеся в срок или в последний час перед сроком; фигурными скобками обозначены явления, наблюдавшиеся между сроками (за 1-3 часа до срока); квадратными скобками обозначены град или гололедные отложения с указанием их диаметра в мм.
Облачность - указаны через наклонную черту общая и нижняя облачность в баллах и высота нижней границы облаков в метрах; квадратными скобками обозначены формы облаков: Ci - перистые, Cs - перисто-слоистые, Cc - перисто-кучевые, Ac - высококучевые, As - высокослоистые, Sc - слоисто-кучевые, Ns - слоисто-дождевые, Cu - кучевые, Cb - кучево-дождевые. Подробнее классификацию облаков см. в Атласе облаков (PDF).
T - Температура воздуха - температура, измеренная на высоте 2 м над землей.
Td - Температура точки росы - температура, при понижении до которой содержащийся в воздухе водяной пар достигнет насыщения.
f - Относительная влажность воздуха - влажноcть воздуха, измеренная на высоте 2 м над землей.
Te - Эффективная температура - температура, которую ощущает одетый по сезону человек в тени. Характеристика душности погоды. При расчете учитывается влияние влажности воздуха и скорости ветра на теплоощущения человека.
Tes - Эффективная температура на солнце - температура, которую ощущает человек, с поправкой на солнечный нагрев. Характеристика знойности погоды. Зависит от высоты солнца над горизонтом, облачности и скорости ветра. Ночью, в пасмурную погоду, а также при ветре 12 м/с и более поправка равна нулю.
P - Атмосферное давление - приведенное к уровню моря атмосферное давление.
Po - Атмосферное давление - измеренное на уровне метеостанции атмосферное давление.
Tmin - Минимальная температура - минимум температуры воздуха на высоте 2 м над землей.
Tmax - Максимальная температура - максимум температуры воздуха на высоте 2 м над землей.
R - Количество осадков - Количество выпавших осадков за период времени, мм. При наведении курсора мыши на число - период времени, за который выпало указанное количество осадков.
R24 - Количество осадков - Количество выпавших осадков за 24 часа, мм.
S - Снежный покров - Высота снежного покрова, см. При наведении курсора мыши на число - состояние снежного покрова и степень покрытия местности в баллах.